[[{"header":{"parameterUnit":"m.s-1","parameterCategory":1,"la1":30.2991,"la2":30.254,"lo1":-89.0895,"lo2":-89.0444,"dy":0.0017,"dx":0.0017,"nx":28,"ny":28,"refTime":"2023-08-22T21:00:00:Z","depth":0,"parameterNumber":2,"parameterNumberName":"U-component_of_WINDS"},"data":[0,0,0,0,0,0,0,0,0,0,0,0,0,0,0,0,0,0,0,0,0,0,0,0,0,0,0,0,0,0,0,0,0,0,0,0,0,0,0,0,0,0,0,0,0,0,0,0,0,0,0,0,0,0,0,0,0,0,1.9316,1.9316,0,1.9313,1.9313,1.9313,1.9253,1.9252,1.925,1.9249,1.9246,1.9247,1.9248,0,0,0,0,0,0,0,0,0,0,0,0,0,1.9271,1.9272,1.9316,1.9316,1.9315,1.9313,1.9313,1.9313,1.9253,1.9252,1.925,1.9248,1.9245,1.9247,1.9248,0,0,0,0,0,0,0,0,0,0,0,0,0,1.9281,1.9272,1.9316,1.9286,1.9283,1.9313,1.9313,1.9313,1.9254,1.9252,1.9249,1.9247,1.9245,1.9247,1.9249,1.9307,0,0,1.9255,1.9256,0,0,0,0,0,0,0,0,1.9281,1.9283,1.929,1.9288,1.9285,1.9281,1.9296,1.9311,1.9254,1.9265,1.9249,1.9246,1.9259,1.926,1.9264,1.9306,1.9306,1.9255,1.9256,1.9257,1.9257,0,0,0,0,0,0,0,1.928,1.9283,1.9314,1.929,1.9287,1.9273,1.9272,1.9298,1.9275,1.9264,1.926,1.926,1.9257,1.9263,1.9264,1.9306,1.9255,1.9257,1.9258,1.9259,1.9398,1.94,0,0,0,0,0,0,1.9283,1.9283,1.9314,1.9314,1.9277,1.9275,1.9274,1.9285,1.9274,1.9271,1.9262,1.9257,1.926,1.9262,1.9263,1.9332,1.9257,1.9259,1.926,1.9395,1.9398,1.9401,0,0,0,0,0,0,1.9283,1.9287,1.9315,1.9297,1.93,1.9279,1.9291,1.9286,1.9291,1.9273,1.9269,1.9272,1.9258,1.9261,1.9297,1.9331,1.926,1.9261,1.9392,1.9396,1.9399,1.9468,0,0,0,0,0,0,1.9282,1.9287,1.9308,1.9298,1.9301,1.9348,1.9293,1.9287,1.9294,1.9288,1.9281,1.9277,1.9257,1.9294,1.9299,1.9332,1.9263,1.9389,1.9394,1.9398,1.9463,1.9474,1.9483,0,0,0,0,0,1.928,1.9327,1.931,1.9314,1.9327,1.935,1.9351,1.9327,1.9297,1.9319,1.9308,1.9278,1.9326,1.9298,1.9303,1.9338,1.9387,1.9392,1.9398,1.9458,1.9472,1.9483,0,0,0,0,0,0,1.9341,1.9325,1.9306,1.9351,1.9352,1.934,1.9366,1.9342,1.9351,1.9345,1.9314,1.9313,1.9354,1.9349,1.9318,1.9394,1.9351,1.9358,1.9396,1.9408,1.9418,1.9418,1.9265,0,0,0,0,0,1.936,1.938,1.9365,1.9406,1.9408,1.9387,1.9396,1.9377,1.9377,1.9378,1.9369,1.937,1.9386,1.9397,1.941,1.9462,1.946,1.9488,1.9499,1.9507,1.9513,1.9542,1.9554,1.9419,1.9419,1.9419,0,0,1.9399,1.9393,1.9407,1.9418,1.9417,1.9439,1.9388,1.9412,1.9428,1.9381,1.9415,1.9409,1.9408,1.9453,1.9472,1.945,1.955,1.9514,1.9521,1.9523,1.9549,1.9562,1.9573,1.9423,1.9422,1.9422,0,0,1.9481,1.9478,1.9513,1.9513,1.9512,1.9499,1.9507,1.9499,1.9493,1.9527,1.9493,1.9511,1.9538,1.954,1.9544,1.9629,1.9602,1.9634,1.9688,1.9716,1.9727,1.9736,1.9767,1.9778,1.9641,1.9641,1.9641,0,1.9529,1.956,1.9534,1.9561,1.9568,1.9527,1.9562,1.9564,1.9568,1.9573,1.9549,1.9583,1.958,1.9625,1.9646,1.9651,1.966,1.9635,1.9727,1.9736,1.9744,1.9774,1.9785,1.9645,1.9644,1.9644,1.9644,0,1.962,1.9642,1.9671,1.9676,1.9686,1.9717,1.9696,1.9709,1.969,1.9679,1.9715,1.971,1.9722,1.9731,1.9712,1.9774,1.9761,1.9732,1.9689,1.9762,1.9789,1.98,1.9651,1.9649,1.9648,1.9647,0,0,1.9739,1.9731,1.9742,1.9745,1.9742,1.9758,1.9788,1.9801,1.9813,1.9818,1.9842,1.9868,1.9842,1.9847,1.9828,1.9853,1.9922,1.9821,1.9821,1.9841,1.9991,2.0013,2.0026,1.9904,1.9906,1.9908,1.9991,0,1.9819,1.9869,1.9848,1.9901,1.9921,1.9884,1.991,1.9912,1.9903,1.992,1.991,1.9928,1.9892,1.9895,1.9918,1.9909,1.9952,1.9902,1.9927,1.9928,1.9929,2.004,2.0062,2.0141,2.0001,2.0003,2.0004,0,1.9918,1.9927,1.9983,1.9978,1.9986,2.001,2.0021,2.0037,2.0038,2.003,2.0037,2.0013,2.0043,2.0,2.0041,2.0008,2.0018,2.0015,2.0017,2.0018,1.9971,2.0045,2.0166,2.0178,2.0021,2.0019,2.0018,0,2.0,2.0027,2.0064,2.0067,2.0062,2.008,2.0079,2.0078,2.0088,2.0097,2.0103,2.0116,2.0123,2.0134,2.0114,2.0085,2.0159,2.0114,2.0153,2.0154,2.017,2.0169,2.0295,2.0176,2.0176,2.0176,2.0175,0,2.0091,2.0127,2.0101,2.0123,2.0163,2.0138,2.0177,2.0172,2.0172,2.0194,2.0162,2.0183,2.0156,2.0175,2.016,2.0197,2.02,2.0195,2.0191,2.0198,2.0199,2.0203,2.0197,2.0179,2.0178,2.0177,2.0177,0,2.0189,2.0173,2.0211,2.0204,2.0203,2.0232,2.0226,2.0247,2.0237,2.0265,2.027,2.0254,2.0274,2.0256,2.0276,2.0266,2.0315,2.0303,2.0315,2.0311,2.0352,2.0349,2.0485,2.0502,2.0372,2.0373,2.0374,0,2.0248,2.0275,2.0271,2.0284,2.0285,2.0305,2.0315,2.0292,2.0304,2.0309,2.033,2.0348,2.0361,2.0395,2.0385,2.04,2.0388,2.0435,2.039,2.0397,2.039,2.0388,2.0391,2.0444,2.0446,2.0447,2.0448,0,2.0355,2.0346,2.0362,2.0376,2.0389,2.0399,2.0406,2.0418,2.0394,2.0409,2.043,2.0441,2.0461,2.048,2.0492,2.0491,2.0466,2.0462,2.0472,2.048,2.0486,2.0484,2.034,2.0459,2.0458,2.0457,2.0456,2.0456,2.0436,2.0458,2.046,2.0479,2.0482,2.049,2.051,2.0503,2.052,2.0535,2.0521,2.0547,2.0549,2.0563,2.0565,2.0585,2.0566,2.058,2.0583,2.0587,2.0594,2.0483,2.0587,2.0587,2.0586,2.0586,2.0586,0,2.0541,2.0541,2.0559,2.0571,2.0586,2.0562,2.0569,2.0584,2.0607,2.0611,2.0625,2.065,2.0669,2.0661,2.0677,2.0695,2.0684,2.07,2.0698,2.0699,2.061,2.06,2.0709,2.0709,2.0709,2.0709,2.0708,2.0708,2.0598,2.0636,2.0628,2.0667,2.0666,2.0692,2.0698,2.0705,2.0709,2.0739,2.0754,2.0749,2.0749,2.0765,2.0781,2.0779,2.0786,2.0807,2.08,2.0717,2.0705,2.0693,2.0684,2.0808,2.0809,2.0887,2.0888,2.0888]},{"header":{"parameterUnit":"m.s-1","parameterCategory":1,"la1":30.2991,"la2":30.254,"lo1":-89.0895,"lo2":-89.0444,"dy":0.0017,"dx":0.0017,"nx":28,"ny":28,"refTime":"2023-08-22T21:00:00:Z","depth":0,"parameterNumber":3,"parameterNumberName":"V-component_of_WINDS"},"data":[0,0,0,0,0,0,0,0,0,0,0,0,0,0,0,0,0,0,0,0,0,0,0,0,0,0,0,0,0,0,0,0,0,0,0,0,0,0,0,0,0,0,0,0,0,0,0,0,0,0,0,0,0,0,0,0,0,0,-3.7855,-3.7856,0,-3.7997,-3.7998,-3.8,-3.7982,-3.798,-3.7977,-3.7975,-3.8119,-3.8124,-3.813,0,0,0,0,0,0,0,0,0,0,0,0,0,-3.7566,-3.7571,-3.7854,-3.7856,-3.7858,-3.7996,-3.7998,-3.8,-3.7982,-3.798,-3.7977,-3.7974,-3.8117,-3.8124,-3.8131,0,0,0,0,0,0,0,0,0,0,0,0,0,-3.7698,-3.7573,-3.7854,-3.7866,-3.7868,-3.7996,-3.7998,-3.8001,-3.7983,-3.798,-3.7976,-3.7973,-3.8114,-3.8123,-3.8132,-3.8256,0,0,-3.8159,-3.8163,0,0,0,0,0,0,0,0,-3.7691,-3.7709,-3.7862,-3.7865,-3.7868,-3.7968,-3.7949,-3.8086,-3.7984,-3.7939,-3.7975,-3.7971,-3.8071,-3.8083,-3.8118,-3.8263,-3.8269,-3.816,-3.8165,-3.8169,-3.8172,0,0,0,0,0,0,0,-3.7681,-3.7702,-3.7911,-3.7864,-3.7868,-3.7863,-3.7878,-3.7975,-3.8023,-3.7943,-3.7942,-3.7959,-3.8072,-3.8109,-3.8121,-3.8271,-3.816,-3.8168,-3.8173,-3.8177,-3.8527,-3.8531,0,0,0,0,0,0,-3.767,-3.7695,-3.7906,-3.7915,-3.7769,-3.7872,-3.7888,-3.7939,-3.8022,-3.8031,-3.7962,-3.7958,-3.8095,-3.811,-3.8126,-3.8278,-3.8169,-3.8178,-3.8183,-3.8524,-3.8528,-3.8533,0,0,0,0,0,0,-3.7663,-3.7689,-3.79,-3.7805,-3.7831,-3.788,-3.7938,-3.7944,-3.7981,-3.8036,-3.8044,-3.7991,-3.8093,-3.8113,-3.8225,-3.8283,-3.8182,-3.819,-3.8519,-3.8525,-3.853,-3.8583,0,0,0,0,0,0,-3.7655,-3.7686,-3.7735,-3.7806,-3.7837,-3.7997,-3.7941,-3.7949,-3.7997,-3.7993,-3.8066,-3.8074,-3.8092,-3.8211,-3.8233,-3.8293,-3.8197,-3.8514,-3.8522,-3.8529,-3.8576,-3.859,-3.8602,0,0,0,0,0,-3.7645,-3.7743,-3.7737,-3.7763,-3.7898,-3.8001,-3.8018,-3.8037,-3.8002,-3.805,-3.8086,-3.8072,-3.8273,-3.8223,-3.8248,-3.8311,-3.851,-3.8519,-3.8528,-3.8571,-3.8587,-3.8601,0,0,0,0,0,0,-3.7676,-3.7752,-3.7747,-3.7871,-3.793,-3.7997,-3.8059,-3.8054,-3.8123,-3.8116,-3.8136,-3.8153,-3.8266,-3.8299,-3.8242,-3.8437,-3.8387,-3.8401,-3.8411,-3.8427,-3.8439,-3.8429,-3.8204,0,0,0,0,0,-3.7697,-3.7775,-3.7837,-3.7941,-3.7971,-3.801,-3.8055,-3.8065,-3.8126,-3.8151,-3.8195,-3.8254,-3.8331,-3.838,-3.8454,-3.8581,-3.8597,-3.8637,-3.865,-3.866,-3.8672,-3.8743,-3.8762,-3.8562,-3.8562,-3.8562,0,0,-3.7742,-3.7793,-3.7841,-3.7948,-3.7995,-3.8075,-3.8031,-3.8117,-3.8176,-3.8164,-3.8272,-3.8306,-3.8374,-3.8494,-3.8549,-3.8526,-3.8731,-3.8671,-3.8679,-3.8686,-3.8754,-3.8773,-3.879,-3.8568,-3.8567,-3.8566,0,0,-3.7864,-3.7911,-3.8003,-3.8051,-3.8122,-3.8148,-3.817,-3.824,-3.8262,-3.8371,-3.8364,-3.8435,-3.8566,-3.8615,-3.8657,-3.88,-3.879,-3.8823,-3.8889,-3.8958,-3.8974,-3.8988,-3.904,-3.9058,-3.8835,-3.8835,-3.8835,0,-3.7911,-3.8031,-3.805,-3.8138,-3.8186,-3.8179,-3.8273,-3.8318,-3.8409,-3.8442,-3.8415,-3.8581,-3.8625,-3.8758,-3.8793,-3.8827,-3.8853,-3.8815,-3.897,-3.8985,-3.8998,-3.9048,-3.9067,-3.8838,-3.8838,-3.8838,-3.8837,0,-3.8085,-3.8169,-3.8235,-3.8325,-3.838,-3.8469,-3.8502,-3.8555,-3.8561,-3.8589,-3.8701,-3.8755,-3.884,-3.8872,-3.8877,-3.9005,-3.8989,-3.8966,-3.8916,-3.902,-3.9067,-3.9086,-3.8844,-3.8842,-3.8841,-3.884,0,0,-3.8231,-3.8331,-3.8355,-3.8396,-3.8475,-3.854,-3.863,-3.8714,-3.876,-3.8823,-3.8899,-3.9011,-3.8991,-3.9039,-3.905,-3.911,-3.9221,-3.908,-3.9082,-3.9105,-3.9367,-3.9384,-3.9406,-3.9215,-3.9219,-3.9222,-3.9361,0,-3.8362,-3.8521,-3.8542,-3.8683,-3.8761,-3.8757,-3.8835,-3.8892,-3.8922,-3.8992,-3.9024,-3.9103,-3.907,-3.9099,-3.9159,-3.9195,-3.9274,-3.9185,-3.9286,-3.929,-3.927,-3.943,-3.9449,-3.9578,-3.938,-3.9383,-3.9385,0,-3.8535,-3.8605,-3.8755,-3.8825,-3.8858,-3.8928,-3.9008,-3.9075,-3.9139,-3.9157,-3.9211,-3.9215,-3.9308,-3.9254,-3.9383,-3.9322,-3.9364,-3.9389,-3.9394,-3.9405,-3.9344,-3.9446,-3.9619,-3.9639,-3.9414,-3.9412,-3.941,0,-3.8628,-3.8759,-3.8866,-3.8901,-3.8985,-3.9035,-3.9071,-3.9133,-3.9182,-3.9251,-3.9284,-3.9363,-3.9406,-3.9467,-3.9491,-3.945,-3.9619,-3.9567,-3.9636,-3.9636,-3.9672,-3.967,-3.9856,-3.9699,-3.9698,-3.9698,-3.9698,0,-3.8772,-3.8864,-3.8909,-3.8975,-3.9078,-3.91,-3.9202,-3.9237,-3.9292,-3.9364,-3.9364,-3.9432,-3.9461,-3.9533,-3.9553,-3.9657,-3.9677,-3.9693,-3.9698,-3.9694,-3.9692,-3.9722,-3.9714,-3.9703,-3.9702,-3.9701,-3.97,0,-3.8892,-3.8926,-3.9043,-3.9113,-3.9133,-3.9206,-3.9265,-3.9329,-3.9358,-3.945,-3.9473,-3.9518,-3.9604,-3.9635,-3.9738,-3.9752,-3.9873,-3.9869,-3.9852,-3.9853,-3.9921,-3.9914,-4.0134,-4.0164,-3.9986,-3.9987,-3.9989,0,-3.8983,-3.9054,-3.9132,-3.9181,-3.922,-3.9299,-3.935,-3.9375,-3.9428,-3.9508,-3.9562,-3.9648,-3.9717,-3.9854,-3.9896,-3.9976,-3.9975,-4.0046,-3.9987,-3.9981,-3.9977,-3.9973,-3.9981,-4.0057,-4.0059,-4.0061,-4.0062,0,-3.914,-3.9153,-3.9227,-3.9308,-3.9369,-3.9433,-3.9495,-3.9535,-3.957,-3.9629,-3.9718,-3.9772,-3.9879,-3.9964,-4.0045,-4.0083,-4.0079,-4.008,-4.0101,-4.0098,-4.0085,-4.0094,-3.9883,-4.0075,-4.0074,-4.0073,-4.0072,-4.0072,-3.9249,-3.9312,-3.9377,-3.946,-3.951,-3.9568,-3.9632,-3.967,-3.9744,-3.9833,-3.9843,-3.9939,-4.0002,-4.0112,-4.0154,-4.0228,-4.0209,-4.0238,-4.0245,-4.0253,-4.0258,-4.0073,-4.0243,-4.0243,-4.0242,-4.0242,-4.0242,0,-3.9406,-3.9448,-3.9524,-3.9612,-3.9677,-3.9668,-3.9737,-3.9792,-3.9876,-3.9936,-4.0005,-4.0107,-4.019,-4.0239,-4.0322,-4.0373,-4.0373,-4.0394,-4.0391,-4.04,-4.027,-4.0245,-4.0392,-4.0392,-4.0392,-4.0392,-4.0392,-4.0392,-3.9496,-3.9603,-3.9625,-3.9757,-3.9798,-3.9892,-3.9932,-3.9986,-4.0035,-4.0149,-4.0218,-4.025,-4.0306,-4.0393,-4.0469,-4.0481,-4.0512,-4.0535,-4.0546,-4.0424,-4.0408,-4.0394,-4.037,-4.0541,-4.0542,-4.0669,-4.067,-4.0671]}]]